Location: Mary A Oil Field
(38.5606°N, 98.9545°W)
Time: 20:49:18
(UTC+00:00)

ISS - Pass Details

Date: 20 January 2020
Orbit: 415 x 423 km, 51.6° (Epoch: 29 February)

Event Time Altitude Azimuth Distance (km) Brightness Sun altitude
Rises 01:46:23 0° 235° (SW) 2,368 1.1 -23.9°
Reaches altitude 10° 01:48:29 10° 238° (WSW) 1,505 -0.1 -24.3°
Enters shadow 01:50:40 36° 249° (WSW) 681 -2.2 -24.7°
